Temperature
16 16 16 16 16 16 16 16 16 16 16 16 15 15 15 15 15 15 15 15 15 15 15 15 15 15 15 15 15 15 15 15 15 15 16 16 16 16 16 16 16 16 16
16 16 16 16 16 16 16 16 16 16 15 15 15 15 15 15 15 15 15 15 15 15 15 15 15 15 15 15 15 15 15 15 15 15 15 15 15 15 15 15 15 15 15
16 16 16 16 16 16 16 16 16 16 15 15 15 15 15 15 15 15 15 15 15 15 15 15 15 15 15 15 15 15 15 15 15 15 15 15 15 15 15 14 15 15 15
16 16 16 16 16 16 16 16 16 15 15 15 15 15 15 15 15 14 15 15 15 15 15 15 15 15 14 14 14 14 14 14 14 14 14 14 14 14 14 14 14 14 14
16 16 16 16 16 16 16 16 16 16 15 15 15 15 14 14 14 14 14 14 14 14 14 14 14 14 14 14 14 14 14 14 14 14 14 14 14 14 14 14 14 14 14
16 16 16 16 16 16 16 16 15 15 15 15 15 14 14 14 14 14 14 14 14 14 14 14 14 14 14 14 14 14 13 13 14 14 14 14 14 14 13 13 13 13 13
16 16 16 16 16 16 16 15 15 15 15 15 15 14 14 14 14 14 14 14 14 14 14 14 14 14 14 14 14 14 13 13 13 13 13 13 13 13 13 13 13 13 13
16 16 16 15 15 15 15 15 15 15 15 15 15 14 14 14 13 13 13 13 13 13 13 13 13 13 13 13 13 13 13 13 13 13 13 13 13 12 12 12 12 12 12
16 16 15 15 15 15 15 15 15 15 15 15 15 15 14 14 13 13 13 13 13 13 13 13 13 13 13 13 13 13 13 13 13 13 13 12 12 12 12 12 12 12 12
15 15 15 15 15 15 15 15 15 15 15 15 15 15 15 15 14 13 13 13 13 13 13 13 13 12 12 13 13 13 13 13 13 13 12 12 12 12 11 11 11 11 11
15 15 15 15 15 15 15 15 15 15 15 15 15 15 15 15 14 14 13 12 12 12 12 12 12 12 12 12 12 12 12 12 12 12 12 12 12 11 11 11 11 11 11
15 15 15 15 15 15 15 15 15 15 15 15 15 15 15 15 14 14 13 13 12 12 12 12 12 12 12 12 12 12 12 12 12 12 12 12 12 11 11 11 11 11 11
15 15 15 15 15 15 15 15 15 15 15 15 15 15 14 14 14 14 14 13 12 12 12 12 12 12 12 12 12 12 11 11 11 11 11 11 11 11 11 10 10 10 10
15 15 15 15 15 15 15 15 15 15 15 15 14 14 14 14 14 14 14 13 13 12 12 11 11 11 11 11 11 11 11 11 11 11 11 11 11 11 11 10 10 10 10
15 15 15 15 15 15 15 15 15 15 15 14 14 14 14 14 14 14 13 13 13 12 12 11 11 11 11 11 11 11 11 11 11 11 11 11 11 11 10 10 10 10 10
15 15 15 15 15 15 15 15 15 14 14 14 14 14 14 14 13 13 13 13 13 13 12 12 11 11 11 11 11 11 11 10 10 10 10 10 10 10 10 10 10 10 10
15 15 15 15 15 15 15 15 15 14 14 14 14 14 14 13 13 13 13 13 13 13 13 12 11 11 11 11 11 10 10 10 10 10 10 10 10 10 10 10 9 9 9
15 15 15 15 15 15 15 15 15 14 14 14 14 14 14 13 13 13 13 13 13 12 12 12 11 11 11 10 10 10 10 10 10 10 10 10 10 9 9 9 9 9 9
15 15 15 15 15 15 15 15 14 14 14 14 14 14 13 13 13 13 13 13 12 12 12 12 11 11 11 10 10 10 10 10 10 10 9 9 9 9 9 9 9 8 8
15 15 15 15 15 15 15 14 14 14 14 14 14 13 13 13 13 13 13 12 12 12 12 11 11 11 10 10 10 10 10 10 9 9 9 9 9 9 8 8 8 8 8
15 15 15 15 15 14 14 14 14 14 14 14 13 13 13 13 13 12 12 12 12 12 11 11 11 11 10 10 10 10 10 9 9 9 9 9 8 8 8 8 8 7 7
15 15 15 14 14 14 14 14 14 14 14 13 13 13 13 13 12 12 12 12 12 11 11 11 11 11 10 10 10 9 9 9 9 9 9 8 8 8 8 8 7 7 7
14 14 14 14 14 14 14 14 14 14 13 13 13 13 13 12 12 12 12 12 11 11 11 11 11 10 10 10 10 9 9 9 9 8 8 8 8 8 8 7 7 7 7
14 14 14 14 14 14 14 14 13 13 13 13 13 13 12 12 12 12 12 11 11 11 11 10 10 10 10 9 9 9 9 9 8 8 8 8 8 8 7 7 7 7 6
14 14 14 14 14 14 13 13 13 13 13 13 12 12 12 12 12 11 11 11 11 11 11 10 10 10 9 9 9 9 9 8 8 8 7 7 7 7 7 7 7 6 6
14 14 13 13 13 13 13 13 13 13 13 13 12 12 12 12 11 11 11 11 11 11 10 10 10 10 9 9 9 9 8 8 8 7 7 7 7 6 6 7 6 6 6
Wind_Speed
3 2 2 2 3 5 6 6 7 8 8 9 10 10 9 9 10 10 10 14 14 13 12 12 11 11 11 11 11 11 11 10 10 10 10 10 10 10 10 10 10 9 8
4 3 3 3 5 6 7 8 7 7 7 7 7 8 8 9 10 10 10 12 14 14 13 13 12 12 12 12 12 12 12 12 11 11 12 11 11 10 9 9 9 9 8
6 5 4 4 5 8 9 8 8 8 6 7 6 6 7 8 9 10 10 11 11 14 15 14 14 13 13 13 12 12 12 12 12 12 13 12 11 10 10 10 9 9 9
9 7 4 4 6 8 7 5 5 6 6 5 5 4 5 6 8 9 10 10 11 11 13 15 15 15 14 14 13 12 12 12 12 13 13 12 12 11 11 10 10 10 10
9 7 5 4 7 6 4 5 4 5 6 5 5 5 5 5 5 8 8 9 10 11 12 14 15 16 15 14 13 13 13 13 13 13 13 13 13 12 11 11 11 11 11
8 7 5 5 6 5 4 4 5 5 4 4 6 6 5 4 5 5 6 8 10 11 12 12 12 14 15 14 14 14 14 14 14 14 14 13 13 13 13 12 12 11 11
7 7 4 4 4 4 4 5 5 5 4 4 5 5 5 6 5 4 5 6 8 9 11 11 11 11 12 14 14 14 13 13 14 14 14 14 14 14 13 13 12 12 11
6 6 5 4 4 4 5 5 5 3 2 2 3 3 3 4 4 5 4 4 5 7 8 10 10 11 11 11 13 14 14 14 14 14 14 14 14 14 14 14 13 13 12
6 6 6 5 4 4 4 4 4 4 3 1 2 3 4 2 1 3 4 4 4 4 5 7 9 9 10 11 11 13 13 13 14 14 14 13 13 13 14 14 14 14 13
5 6 6 6 4 3 3 3 3 3 4 2 1 2 2 4 3 1 3 3 4 4 4 5 6 8 9 10 11 12 12 12 12 13 13 13 13 13 13 14 14 13 14
3 5 6 5 4 3 3 3 4 3 2 3 2 2 3 3 3 3 2 1 3 3 3 4 5 6 8 8 9 10 11 11 11 12 12 12 12 12 13 13 13 13 14
1 3 5 5 5 3 3 3 4 5 4 4 3 3 3 3 3 3 3 2 1 2 3 4 4 4 6 7 7 9 9 10 10 11 11 12 12 12 12 13 13 13 13
1 2 3 4 4 4 5 5 4 4 4 4 3 3 2 2 3 4 4 3 2 1 2 2 3 3 4 6 6 7 8 9 9 10 10 11 11 11 11 12 12 13 12
3 3 4 4 5 5 5 5 3 3 4 4 4 4 3 2 3 4 4 4 3 2 2 1 2 3 3 5 6 7 7 8 8 8 8 9 9 9 10 10 11 12 12
4 5 5 5 5 5 5 5 3 3 4 4 4 4 3 2 2 2 3 4 5 3 1 1 1 1 1 4 5 6 5 6 6 6 7 7 7 8 8 9 9 10 10
4 5 4 4 4 4 5 4 4 3 5 3 3 4 3 2 2 2 2 2 3 4 3 2 1 1 1 2 3 4 4 5 5 5 6 6 6 6 6 7 8 8 9
5 5 5 5 5 4 4 4 4 4 5 3 3 4 3 3 2 2 2 3 2 3 3 0 0 0 2 2 2 3 3 3 3 4 5 4 5 5 5 5 6 6 7
4 5 5 5 5 5 4 5 5 5 5 4 3 4 3 3 3 2 2 3 3 3 4 3 1 1 0 1 1 1 2 2 2 3 3 3 3 4 4 4 5 5 6
4 4 5 5 5 5 5 5 5 5 5 4 4 4 3 4 3 2 3 3 2 3 3 4 2 0 0 1 1 1 1 2 1 2 2 1 2 2 3 3 4 4 5
5 4 4 4 4 5 5 5 5 5 4 4 4 4 4 4 4 3 3 3 3 3 3 3 2 1 0 1 1 0 1 2 2 2 2 2 2 2 3 3 3 4 4
5 4 4 4 3 3 5 6 6 5 5 4 3 2 3 4 5 5 4 4 5 4 3 3 2 1 0 0 1 1 1 1 2 2 2 2 2 3 4 5 5 5 5
4 4 4 4 3 3 6 9 7 5 5 5 4 2 2 2 3 5 6 7 8 6 5 4 2 2 3 2 1 1 1 1 2 2 0 3 1 2 5 6 6 6 5
4 4 4 4 3 3 6 9 10 6 5 4 4 3 2 2 3 2 3 4 4 5 7 6 5 5 4 4 3 2 2 2 3 3 1 2 2 3 6 7 7 6 6
4 4 4 4 4 3 6 8 9 6 4 3 3 4 4 3 3 4 4 3 1 1 3 4 5 5 4 4 5 4 4 2 2 2 1 2 2 3 4 6 7 6 6
4 4 4 5 4 4 6 8 7 4 4 3 3 3 4 4 5 7 5 4 1 1 1 3 4 4 4 4 4 3 2 1 2 3 1 1 2 2 3 3 6 6 7
5 5 4 4 5 4 5 7 7 4 4 2 2 2 4 5 6 7 6 5 4 3 2 1 1 1 1 1 2 3 4 2 1 2 2 1 1 1 3 3 4 6 7
Wind_Direction
113 107 96 78 69 83 90 93 87 87 87 88 91 88 80 77 70 63 61 65 67 68 70 71 74 76 77 80 81 77 78 78 76 73 73 75 78 74 70 64 62 62 62
109 103 87 77 74 89 97 101 98 93 87 86 83 82 81 79 74 67 64 61 61 62 62 64 69 72 74 77 79 79 77 76 73 71 72 74 76 72 67 63 62 60 63
99 95 90 84 85 96 95 94 90 87 86 83 78 79 80 80 77 70 69 65 61 59 59 62 65 67 70 73 74 76 76 75 72 70 71 72 71 68 65 63 62 60 63
93 91 89 86 97 99 98 96 89 87 82 80 77 74 76 78 77 75 73 70 65 60 56 61 64 64 67 69 70 71 72 73 71 70 69 69 69 66 63 62 61 58 58
91 95 92 92 101 100 99 104 91 99 97 89 84 73 70 74 73 78 71 69 68 64 60 59 61 59 60 63 67 69 71 72 71 69 68 66 66 64 63 62 61 59 56
90 95 92 90 98 96 88 97 98 90 99 102 91 73 60 62 66 69 72 71 69 68 65 62 59 56 56 58 63 67 70 70 70 69 67 66 65 63 62 60 58 56 54
90 91 93 90 97 102 109 112 106 96 90 102 88 65 44 46 56 61 63 68 66 70 68 66 63 59 54 54 60 65 67 67 68 68 66 65 64 62 59 56 54 54 54
93 98 95 99 101 100 98 103 107 107 109 112 114 102 65 28 29 46 55 70 63 65 67 67 65 62 58 56 59 63 64 65 66 66 64 64 63 60 58 55 54 54 53
98 101 105 105 104 109 120 123 122 122 133 70 102 133 135 167 54 22 38 53 56 58 60 67 69 65 62 58 60 61 63 62 63 63 62 63 61 60 58 55 55 55 52
100 103 108 109 107 108 117 127 120 119 131 130 57 64 124 144 140 101 19 25 44 56 54 65 69 67 64 64 64 64 64 63 61 60 61 61 61 60 57 55 54 53 52
90 105 109 106 107 109 115 108 100 96 111 128 127 107 86 75 89 126 131 24 28 26 41 57 67 69 66 68 70 68 67 64 62 60 60 59 59 58 57 56 53 53 51
71 96 105 106 108 111 112 110 104 98 93 92 93 101 122 124 131 124 135 138 97 10 27 39 53 65 69 71 75 75 72 69 65 62 61 58 57 56 56 55 52 51 50
142 138 118 114 112 113 109 105 102 99 100 100 102 100 100 118 132 129 127 133 122 10 22 20 23 54 74 73 70 72 74 73 70 66 62 60 56 55 54 53 50 48 47
175 161 137 126 119 117 114 107 105 105 101 106 105 103 96 92 109 127 138 136 113 45 28 345 358 35 77 83 75 76 73 74 70 66 63 61 57 55 53 50 48 46 44
168 151 138 131 125 122 119 112 105 107 102 98 100 99 98 96 100 107 125 141 142 142 208 270 305 318 107 99 87 82 74 70 67 64 61 59 55 53 51 48 45 43 40
159 150 146 142 137 131 122 116 112 113 105 104 109 101 96 99 97 99 117 118 130 144 160 220 224 227 126 103 95 91 78 66 60 61 58 53 50 47 49 46 41 38 34
162 160 158 153 147 142 136 129 129 125 119 110 103 107 106 108 105 100 105 101 102 117 136 186 1 86 101 101 83 87 72 65 54 54 46 47 46 46 50 48 37 28 22
160 162 156 152 156 152 147 143 142 132 132 131 124 112 115 116 105 103 104 105 111 114 133 135 71 68 140 175 132 96 65 45 52 45 43 45 45 48 38 28 24 19 15
139 144 145 151 157 154 148 148 144 143 144 146 144 141 146 127 119 114 107 111 112 104 105 131 144 124 31 51 63 32 28 6 356 8 2 4 28 17 13 15 11 7 6
143 142 140 148 154 154 151 149 142 141 141 145 155 159 161 155 160 149 135 137 126 111 106 117 123 103 35 1 80 49 342 320 309 342 341 320 331 329 324 324 330 336 341
150 148 136 132 138 154 166 158 152 148 143 141 144 158 167 162 163 160 154 157 145 136 126 125 131 102 336 129 225 231 226 305 306 322 314 313 313 312 303 300 302 306 316
143 135 141 145 149 164 164 164 156 151 155 156 159 163 160 152 160 155 152 154 157 157 162 159 169 186 221 218 203 177 149 47 298 293 258 291 290 279 285 286 290 293 301
154 150 159 152 154 164 155 157 155 146 148 158 164 167 164 145 137 134 140 143 157 167 168 169 178 202 203 206 176 175 190 196 235 259 153 279 286 275 284 286 289 289 299
160 162 164 161 157 166 154 148 151 140 138 154 165 168 162 162 153 149 136 119 116 161 185 184 191 200 197 190 181 185 191 202 280 300 154 253 280 278 300 302 297 291 301
161 166 171 168 168 178 165 154 143 142 146 165 174 163 161 167 166 151 140 143 147 264 147 159 171 175 175 170 157 124 112 106 288 287 222 202 275 293 297 301 310 304 304
172 166 170 177 176 184 177 164 151 150 159 174 181 190 177 177 175 162 158 162 181 220 186 120 110 103 134 164 171 172 175 170 217 273 264 193 275 330 314 299 312 316 313
Height
1550 1549 1550 1550 1550 1550 1550 1550 1550 1550 1550 1550 1550 1550 1549 1549 1549 1548 1548 1548 1547 1546 1546 1546 1545 1545 1544 1544 1544 1543 1543 1542 1542 1541 1540 1539 1539 1540 1540 1540 1540 1540 1540
1551 1551 1551 1551 1551 1551 1551 1551 1551 1552 1552 1552 1552 1551 1551 1551 1550 1550 1549 1549 1549 1548 1547 1547 1546 1546 1545 1545 1545 1544 1544 1543 1543 1542 1540 1539 1539 1540 1540 1540 1540 1540 1540
1552 1552 1552 1552 1552 1553 1553 1553 1553 1553 1553 1553 1553 1553 1552 1552 1552 1552 1552 1551 1550 1550 1549 1548 1548 1547 1547 1546 1545 1545 1545 1544 1544 1543 1542 1541 1541 1541 1541 1540 1540 1540 1539
1553 1553 1553 1554 1554 1554 1554 1554 1554 1554 1555 1554 1554 1554 1554 1554 1554 1554 1553 1553 1552 1551 1550 1550 1549 1548 1548 1547 1546 1546 1546 1545 1545 1544 1543 1543 1542 1542 1541 1541 1540 1539 1539
1554 1554 1555 1555 1555 1555 1555 1556 1556 1556 1556 1556 1556 1555 1555 1556 1556 1556 1555 1554 1554 1553 1552 1551 1550 1549 1549 1548 1547 1547 1547 1546 1546 1545 1544 1544 1543 1542 1542 1541 1540 1539 1538
1555 1555 1555 1556 1556 1556 1556 1557 1557 1557 1557 1557 1557 1557 1557 1558 1558 1557 1557 1556 1555 1555 1554 1553 1552 1551 1550 1549 1549 1548 1548 1547 1547 1546 1545 1545 1544 1543 1542 1541 1540 1539 1537
1555 1556 1556 1556 1557 1557 1557 1558 1558 1558 1558 1559 1559 1559 1559 1560 1560 1559 1559 1558 1557 1557 1556 1555 1554 1553 1551 1550 1550 1549 1549 1549 1548 1547 1546 1546 1545 1544 1542 1541 1540 1538 1537
1556 1556 1556 1556 1557 1557 1558 1558 1559 1559 1559 1560 1560 1559 1560 1562 1561 1561 1561 1560 1559 1558 1557 1556 1555 1554 1553 1552 1551 1551 1550 1550 1549 1548 1547 1546 1545 1544 1543 1541 1540 1538 1536
1556 1556 1556 1557 1557 1558 1558 1559 1559 1559 1559 1560 1560 1561 1560 1561 1562 1563 1562 1562 1561 1560 1559 1558 1557 1556 1555 1554 1553 1552 1552 1551 1550 1549 1548 1547 1546 1545 1543 1542 1540 1538 1536
1556 1557 1557 1557 1558 1558 1558 1559 1559 1560 1560 1560 1560 1560 1561 1561 1561 1562 1564 1563 1562 1562 1561 1560 1559 1558 1557 1556 1555 1554 1553 1553 1552 1551 1550 1549 1547 1546 1544 1542 1541 1539 1537
1557 1557 1557 1557 1558 1558 1558 1559 1559 1559 1560 1560 1560 1560 1560 1560 1561 1561 1562 1563 1563 1563 1562 1562 1561 1559 1559 1558 1557 1556 1555 1554 1553 1552 1551 1549 1548 1547 1545 1543 1542 1540 1538
1556 1557 1557 1557 1557 1558 1558 1558 1559 1559 1559 1559 1560 1560 1560 1560 1561 1561 1561 1562 1563 1563 1563 1563 1562 1561 1560 1559 1558 1557 1556 1555 1554 1553 1552 1550 1549 1547 1546 1544 1542 1541 1539
1556 1556 1557 1557 1557 1558 1558 1558 1559 1559 1559 1559 1559 1560 1560 1560 1561 1561 1561 1562 1563 1564 1564 1564 1563 1562 1561 1560 1559 1558 1557 1556 1555 1554 1552 1551 1550 1548 1547 1545 1543 1542 1540
1555 1556 1556 1557 1557 1557 1558 1558 1558 1559 1559 1559 1559 1560 1560 1560 1560 1561 1562 1562 1562 1564 1564 1564 1564 1563 1562 1561 1560 1559 1558 1557 1556 1554 1553 1552 1550 1549 1547 1546 1544 1542 1541
1554 1555 1556 1556 1557 1557 1558 1558 1558 1558 1559 1559 1559 1559 1560 1560 1560 1561 1562 1562 1563 1563 1563 1564 1564 1563 1563 1562 1561 1560 1559 1558 1556 1555 1554 1552 1551 1549 1548 1546 1544 1543 1541
1553 1554 1555 1556 1556 1557 1557 1557 1558 1558 1559 1559 1559 1559 1559 1560 1560 1561 1561 1562 1562 1563 1562 1563 1563 1563 1563 1562 1561 1560 1559 1558 1557 1555 1554 1553 1551 1550 1548 1547 1545 1543 1541
1552 1553 1554 1555 1555 1556 1557 1557 1557 1558 1558 1558 1559 1559 1559 1559 1560 1560 1561 1561 1561 1562 1562 1562 1562 1563 1562 1562 1561 1560 1559 1558 1557 1556 1554 1553 1551 1550 1548 1547 1545 1543 1541
1551 1552 1553 1554 1554 1555 1556 1556 1556 1557 1557 1558 1558 1558 1559 1559 1559 1560 1560 1560 1561 1561 1561 1561 1561 1561 1561 1561 1561 1560 1559 1558 1557 1556 1554 1553 1551 1550 1548 1546 1545 1543 1541
1550 1551 1552 1553 1553 1554 1555 1555 1556 1556 1557 1557 1558 1558 1558 1559 1559 1559 1559 1559 1560 1560 1560 1560 1560 1560 1560 1560 1560 1559 1559 1557 1556 1555 1554 1552 1551 1549 1547 1546 1544 1542 1540
1548 1549 1550 1551 1552 1553 1554 1554 1555 1555 1556 1556 1557 1557 1557 1558 1558 1558 1558 1558 1559 1559 1559 1559 1559 1559 1559 1559 1558 1558 1557 1556 1555 1554 1553 1551 1550 1548 1547 1545 1543 1541 1540
1547 1548 1549 1550 1551 1551 1552 1553 1554 1554 1555 1555 1555 1556 1556 1556 1556 1557 1557 1557 1557 1558 1558 1558 1558 1558 1557 1557 1557 1556 1555 1555 1554 1553 1551 1550 1549 1547 1545 1544 1542 1540 1539
1545 1546 1547 1548 1549 1550 1551 1551 1552 1553 1553 1554 1554 1554 1555 1555 1555 1555 1555 1555 1556 1556 1556 1556 1556 1556 1555 1555 1555 1554 1554 1552 1551 1551 1549 1548 1547 1545 1543 1542 1540 1539 1537
1544 1545 1546 1547 1548 1549 1549 1550 1551 1551 1552 1552 1553 1553 1553 1553 1553 1553 1554 1554 1554 1554 1555 1555 1554 1554 1554 1554 1553 1552 1551 1550 1550 1549 1547 1545 1544 1543 1541 1540 1538 1537 1535
1541 1543 1544 1545 1546 1547 1548 1548 1549 1549 1550 1550 1551 1551 1551 1552 1552 1552 1552 1552 1552 1552 1552 1552 1552 1552 1552 1552 1551 1551 1550 1549 1548 1547 1545 1543 1542 1540 1539 1537 1536 1534 1532
1539 1540 1542 1543 1544 1545 1546 1546 1547 1547 1548 1548 1548 1549 1549 1549 1550 1550 1550 1550 1550 1550 1550 1550 1550 1550 1550 1549 1549 1548 1547 1546 1544 1544 1543 1541 1539 1537 1536 1534 1533 1531 1529
1537 1538 1539 1540 1541 1542 1543 1544 1544 1545 1545 1546 1546 1547 1547 1547 1547 1547 1547 1547 1547 1547 1548 1547 1547 1547 1547 1547 1546 1545 1544 1543 1542 1540 1539 1538 1536 1535 1532 1531 1530 1528 1526